Location: Arbon
(43.0005°N, 0.7472°E)
Time: 21:42:10
(UTC+00:00)

Explorer 7 - Pass Details

Date: 29 November 2020
Orbit: 484 x 678 km, 50.3° (Epoch: 25 January)

Event Time Altitude Azimuth Distance (km) Brightness Sun altitude
Rises 07:56:25 0° 296° (WNW) 2,702 9.7 6.7°
Reaches altitude 10° 07:58:47 10° 290° (WNW) 1,775 8.9 7.1°
Maximum altitude 08:02:33 40° 220° (SW) 759 7.7 7.6°
Drops below altitude 10° 08:06:09 10° 149° (SSE) 1,688 11.0 8.1°
Sets 08:08:21 0° 142° (SE) 2,551 12.2 8.4°
